Regional Weather Roundup
Issued by NWS

Home | Current Version | Previous Version | Text Only | Print | Product List | Glossary Off
Versions: 1 2 3 4 5 6 7 8 9 10 11 12 13 14 15 16 17 18 19 20 21 22 23 24 25 26 27 28 29 30 31 32 33 34 35 36 37 38 39 40 41 42 43 44 45 46 47 48 49 50

000
ASUS43 KBIS 310701
RWRND

NORTH DAKOTA REGIONAL WEATHER ROUNDUP
NATIONAL WEATHER SERVICE BISMARCK ND
100 AM CST SAT JAN 31 2015

NOTE: "FAIR" INDICATES FEW OR NO CLOUDS BELOW 12,000 FEET WITH NO
SIGNIFICANT WEATHER AND/OR OBSTRUCTIONS TO VISIBILITY.


NDZ001>003-009>011-017-310800-
NORTHWEST NORTH DAKOTA

CITY           SKY/WX    TMP DP  RH WIND       PRES   REMARKS
WILLISTON      CLOUDY    22  19  89 NE14      30.20S WCI   9
MINOT          CLOUDY    20  15  81 N9        30.22S WCI   9
MINOT AFB      CLOUDY    20  19  98 NE12      30.23S WCI   7
$$

NDZ018>021-031>035-040>046-310800-
SOUTHWEST NORTH DAKOTA

CITY           SKY/WX    TMP DP  RH WIND       PRES   REMARKS
BISMARCK       CLOUDY    24  22  91 NE10      30.20R WCI  14
DICKINSON      MOCLDY    26  22  84 NE10      30.11F WCI  16
GARRISON         N/A     23  20  88 NE9       30.19R WCI  13
HETTINGER ARPT CLEAR     24  20  84 CALM      30.11F
$$

NDZ004>008-012>016-024-026-027-054-310800-
NORTHEAST NORTH DAKOTA

CITY           SKY/WX    TMP DP  RH WIND       PRES   REMARKS
GRAND FORKS    CLOUDY    17  12  80 N21       30.25R WCI   0
GRND FRKS AFB  FLURRIES  17  11  78 N16       30.25R WCI   2
DEVILS LAKE    CLOUDY    18  10  73 N15G21    30.23R WCI   3
$$

NDZ022-023-025-028>030-036>039-047>053-310800-
SOUTHEAST NORTH DAKOTA

CITY           SKY/WX    TMP DP  RH WIND       PRES   REMARKS
FARGO          CLOUDY    24  17  74 N20G26    30.19R WCI  10
JAMESTOWN      CLOUDY    24  20  84 N16       30.18S WCI  11
$$




USA.gov is the U.S. government's official web portal to all federal, state and local government web resources and services.